Вернуться в каталог

H-2A R/B

АктивенHEO
NORAD 42966·ROCKET BODY·🇯🇵 Japan

Запущен Oct 9, 2017 с Tanegashima Space Center

Loading…

Ближайшие Пролёты (ближайшие 24 часа)

TLE

СвежийSource: Space-Track

Эпоха: Sep 14, 2026, 03:38 UTC

1 42966U 17062B   26257.15180112  .00003930  00000-0  11301-2 0  9997
2 42966  31.4602 268.5528 7142213 219.0357  57.5383  2.45409051 77025

Отслеживайте H-2A R/B в реальном времени с AllMySat

Download on the App Store